Shelbyville, IN

4:01 AM EDT on June 29, 2017 (GMT -0400)
Shelbyville Municipal

Weather History for KGEZ - June, 2014

Change the Weather History Date:

Monday, June 9, 2014

  Actual Average Record
Temperature  
Mean Temperature 71 °F 70 °F  
Max Temperature 78 °F 81 °F 91 °F (2011)
Min Temperature 63 °F 60 °F 51 °F (2003)
Degree Days  
Heating Degree Days 0 1  
Month to date heating degree days 0 9  
Since 1 June heating degree days 0 9  
Since 1 July heating degree days 5702 5404  
Cooling Degree Days 6 6  
Month to date cooling degree days 70 47  
Year to date cooling degree days 233 128  
Since 1 June cooling degree days 70 47  
Growing Degree Days 20 (Base 50)    
Moisture  
Dew Point 59 °F    
Average Humidity 67    
Maximum Humidity 90    
Minimum Humidity 43    
Precipitation  
Precipitation 0.00 in 0.16 in 0.00 in (2017)
Month to date precipitation 2.72 1.49  
Year to date precipitation 18.21 19.27  
Sea Level Pressure  
Sea Level Pressure 29.94 in    
Wind  
Wind Speed 5 mph (East)    
Max Wind Speed 13 mph    
Max Gust Speed 16 mph    
Visibility 9 miles    
Events      
T = Trace of Precipitation, MM = Missing Value Source: NWS Daily Summary

Daily Weather History Graph

Daily Weather History Graph

Search for Another Location

Airport or City:

Trip Planner

Search our weather history database for the weather conditions in past years. The results will help you decide how hot, cold, wet, or windy it might be!

Date:

Astronomy

Jun. 09, 2014 Rise Set
Actual Time 6:15 AM EDT 9:09 PM EDT
Civil Twilight 5:43 AM EDT 9:42 PM EDT
Nautical Twilight 5:02 AM EDT 10:22 PM EDT
Astronomical Twilight 4:15 AM EDT 11:09 PM EDT
Moon 5:30 PM EDT (6/9) 3:41 AM EDT (6/9)
Length of Visible Light 15h 58m
Length of Day
14h 54m
Waxing Gibbous, 85% of the Moon is Illuminated
Jun 9
Waxing Gibbous
Jun 13
Full
Jun 19
Last Quarter
Jun 27
New
Jul 5
First Quarter

Hourly Weather History & Observations

Time (EDT) Temp. Dew Point Humidity Pressure Visibility Wind Dir Wind Speed Gust Speed Precip Events Conditions
12:53 AM 66.0 °F 60.1 °F 81% 29.98 in 10.0 mi North 5.8 mph - N/A   Clear
1:53 AM 64.9 °F 60.1 °F 84% 29.97 in 10.0 mi Calm Calm - N/A   Clear
2:53 AM 64.0 °F 60.1 °F 87% 29.96 in 10.0 mi North 3.5 mph - N/A   Clear
3:53 AM 64.9 °F 60.1 °F 84% 29.95 in 9.0 mi Calm Calm - N/A   Clear
4:53 AM 64.0 °F 60.1 °F 87% 29.93 in 7.0 mi Calm Calm - N/A   Clear
5:53 AM 63.0 °F 59.0 °F 87% 29.96 in 7.0 mi Calm Calm - N/A   Clear
6:53 AM 64.0 °F 60.1 °F 87% 29.97 in 5.0 mi Calm Calm - N/A   Clear
7:53 AM 64.9 °F 61.0 °F 87% 29.96 in 4.0 mi ENE 3.5 mph - N/A   Clear
8:53 AM 66.0 °F 62.1 °F 87% 29.98 in 4.0 mi Calm Calm - N/A   Clear
9:53 AM 68.0 °F 61.0 °F 78% 29.97 in 10.0 mi ENE 8.1 mph - N/A   Clear
11:53 AM 72.0 °F 55.9 °F 57% 29.97 in 10.0 mi East 8.1 mph - N/A   Clear
12:53 PM 73.0 °F 55.0 °F 53% 29.98 in 10.0 mi East 8.1 mph - N/A   Overcast
4:53 PM 75.9 °F 55.0 °F 48% 29.91 in 10.0 mi ENE 5.8 mph - N/A   Partly Cloudy
5:53 PM 77.0 °F 55.9 °F 48% 29.90 in 10.0 mi East 8.1 mph - N/A   Overcast
6:53 PM 75.0 °F 57.0 °F 53% 29.89 in 10.0 mi East 9.2 mph - N/A   Partly Cloudy
7:53 PM 75.0 °F 57.9 °F 55% 29.89 in 10.0 mi East 6.9 mph - N/A   Overcast
8:53 PM 73.0 °F 59.0 °F 61% 29.90 in 10.0 mi East 5.8 mph - N/A   Overcast
9:53 PM 68.0 °F 60.1 °F 76% 29.90 in 10.0 mi East 4.6 mph - N/A   Scattered Clouds
10:53 PM 69.1 °F 59.0 °F 70% 29.89 in 10.0 mi East 5.8 mph - N/A   Partly Cloudy
11:53 PM 68.0 °F 59.0 °F 73% 29.90 in 10.0 mi SE 5.8 mph - N/A   Clear